Location: Bear Valley Meadows
(40.9851°N, 123.0761°W)
Time: 17:00:43
(UTC+00:00)

CUTE-I - Visible Passes

Search period start: 08 September 2024 00:00
Search period end: 18 September 2024 00:00
Orbit: 807 x 820 km, 98.7° (Epoch: 07 September)

Date Brightness Start Highest point End Pass type
(mag) Time Alt. Az. Time Alt. Az. Time Alt. Az.
09 Sep ? 13:02:40 10° ENE 13:03:48 11° E 13:04:57 10° E visible
11 Sep ? 03:22:09 10° WSW 03:23:22 11° W 03:24:36 10° WNW visible
12 Sep ? 02:56:50 10° SW 03:00:27 18° W 03:04:05 10° NW visible
13 Sep ? 13:10:46 10° ENE 13:13:20 13° E 13:15:52 10° ESE visible
16 Sep ? 03:06:58 10° SW 03:09:55 15° W 03:12:53 10° WNW visible
17 Sep ? 02:42:45 10° SSW 02:47:01 24° W 02:51:20 10° NW visible
17 Sep ? 13:19:26 10° NE 13:22:47 17° E 13:26:06 10° SE visible
